• In Denmark
  • List of Countries
  • For 7 days
  • Water Temperature
  • Satellite Maps
  • Weather Map
  • Weather Widgets
  • user-avatar
    Login

    Hourly Weather Szczerez

    Today, 23 September, Sunday

    Time Temperature Precipitation Wind Pressure Humidity
    00:00 +10°C° 0 mm 2 mps 718 mmHg 70%
    01:00 +10°C° 0 mm 2 mps 718 mmHg 70%
    02:00 +9°C° 0 mm 2 mps 718 mmHg 72%
    03:00 +9°C° 0 mm 2 mps 717 mmHg 75%
    04:00 +8°C° 0 mm 2 mps 717 mmHg 77%
    05:00 +9°C° 0 mm 2 mps 717 mmHg 75%
    06:00 +9°C° 0 mm 2 mps 717 mmHg 73%
    07:00 +10°C° 0 mm 2 mps 717 mmHg 72%
    08:00 +11°C° 0 mm 3 mps 717 mmHg 64%
    09:00 +13°C° 0 mm 3 mps 717 mmHg 57%
    10:00 +15°C° 0 mm 4 mps 717 mmHg 50%
    11:00 +16°C° 0 mm 3 mps 717 mmHg 51%
    12:00 +16°C° 0 mm 3 mps 717 mmHg 52%
    13:00 +16°C° 0 mm 3 mps 716 mmHg 52%
    14:00 +16°C° 0.1 mm 3 mps 716 mmHg 59%
    15:00 +14°C° 0.1 mm 3 mps 715 mmHg 65%
    16:00 +14°C° 0.1 mm 2 mps 714 mmHg 72%
    17:00 +13°C° 0.1 mm 3 mps 713 mmHg 74%
    18:00 +12°C° 0.1 mm 3 mps 713 mmHg 77%
    19:00 +12°C° 0.1 mm 3 mps 712 mmHg 79%
    20:00 +12°C° 0 mm 4 mps 711 mmHg 77%
    21:00 +13°C° 0 mm 5 mps 710 mmHg 74%
    22:00 +14°C° 0 mm 6 mps 709 mmHg 71%
    23:00 +14°C° 1.4 mm 6 mps 708 mmHg 76%

    Tomorrow, 24 September, Monday

    Time Temperature Precipitation Wind Pressure Humidity
    00:00 +14°C° 1.4 mm 6 mps 707 mmHg 81%
    01:00 +14°C° 1.4 mm 5 mps 707 mmHg 86%
    02:00 +13°C° 2.8 mm 6 mps 707 mmHg 88%
    03:00 +13°C° 2.8 mm 6 mps 708 mmHg 89%
    04:00 +11°C° 2.8 mm 6 mps 709 mmHg 91%
    05:00 +9°C° 0.6 mm 6 mps 710 mmHg 90%
    06:00 +8°C° 0.6 mm 6 mps 711 mmHg 89%
    07:00 +5°C° 0.6 mm 6 mps 712 mmHg 88%
    08:00 +7°C° 0.2 mm 6 mps 713 mmHg 85%
    09:00 +7°C° 0.2 mm 6 mps 715 mmHg 82%
    10:00 +6°C° 0.2 mm 7 mps 716 mmHg 79%
    11:00 +8°C° 0.1 mm 7 mps 716 mmHg 73%
    12:00 +8°C° 0.1 mm 7 mps 717 mmHg 67%
    13:00 +9°C° 0.1 mm 8 mps 717 mmHg 60%
    14:00 +8°C° 0.2 mm 7 mps 717 mmHg 61%
    15:00 +8°C° 0.2 mm 7 mps 718 mmHg 62%
    16:00 +7°C° 0.2 mm 6 mps 718 mmHg 63%
    17:00 +5°C° 0.1 mm 6 mps 718 mmHg 66%
    18:00 +5°C° 0.1 mm 5 mps 719 mmHg 70%
    19:00 +4°C° 0.1 mm 4 mps 719 mmHg 74%
    20:00 +4°C° 0 mm 4 mps 719 mmHg 73%
    21:00 +4°C° 0 mm 4 mps 719 mmHg 73%
    22:00 +2°C° 0 mm 5 mps 720 mmHg 72%
    23:00 +2°C° 0.5 mm 5 mps 720 mmHg 76%

    Day after tomorrow, 25 September, Tuesday

    Time Temperature Precipitation Wind Pressure Humidity
    00:00 +2°C° 0.5 mm 5 mps 720 mmHg 80%
    01:00 +2°C° 0.5 mm 5 mps 721 mmHg 84%
    02:00 +2°C° 0.1 mm 5 mps 721 mmHg 85%
    03:00 +3°C° 0.1 mm 4 mps 722 mmHg 86%
    04:00 +3°C° 0.1 mm 4 mps 722 mmHg 87%
    05:00 +3°C° 0 mm 4 mps 723 mmHg 86%
    06:00 +3°C° 0 mm 4 mps 724 mmHg 85%
    07:00 +3°C° 0 mm 4 mps 724 mmHg 84%
    08:00 +3°C° 0.1 mm 5 mps 725 mmHg 78%
    09:00 +6°C° 0.1 mm 5 mps 725 mmHg 72%
    10:00 +7°C° 0.1 mm 5 mps 726 mmHg 65%
    11:00 +7°C° 0.3 mm 5 mps 726 mmHg 64%
    12:00 +7°C° 0.3 mm 5 mps 726 mmHg 62%
    13:00 +8°C° 0.3 mm 5 mps 726 mmHg 60%
    14:00 +7°C° 0.2 mm 5 mps 727 mmHg 62%
    15:00 +7°C° 0.2 mm 4 mps 727 mmHg 63%
    16:00 +7°C° 0.2 mm 4 mps 727 mmHg 64%
    17:00 +5°C° 0 mm 3 mps 727 mmHg 70%
    18:00 +5°C° 0 mm 2 mps 727 mmHg 75%
    19:00 +4°C° 0 mm 2 mps 728 mmHg 81%
    20:00 +3°C° 0 mm 2 mps 728 mmHg 81%
    21:00 +3°C° 0 mm 2 mps 728 mmHg 82%
    22:00 +2°C° 0 mm 2 mps 729 mmHg 83%
    23:00 +3°C° 0 mm 1 mps 729 mmHg 83%

    26 September, Wednesday

    Time Temperature Precipitation Wind Pressure Humidity
    00:00 +3°C° 0 mm 1 mps 729 mmHg 83%
    01:00 +2°C° 0 mm 1 mps 729 mmHg 84%
    02:00 +2°C° 0 mm 1 mps 729 mmHg 84%
    03:00 +2°C° 0 mm 1 mps 729 mmHg 84%
    04:00 +2°C° 0 mm 1 mps 729 mmHg 84%
    05:00 +2°C° 0 mm 1 mps 730 mmHg 80%
    06:00 +3°C° 0 mm 1 mps 730 mmHg 76%
    07:00 +4°C° 0 mm 1 mps 730 mmHg 73%
    08:00 +7°C° 0 mm 1 mps 730 mmHg 62%
    09:00 +9°C° 0 mm 1 mps 730 mmHg 52%
    10:00 +11°C° 0 mm 1 mps 730 mmHg 42%
    11:00 +12°C° 0 mm 1 mps 730 mmHg 39%
    12:00 +13°C° 0 mm 2 mps 729 mmHg 37%
    13:00 +14°C° 0 mm 2 mps 729 mmHg 35%
    14:00 +14°C° 0 mm 2 mps 728 mmHg 40%
    15:00 +13°C° 0 mm 1 mps 728 mmHg 45%
    16:00 +13°C° 0 mm 1 mps 727 mmHg 50%
    17:00 +11°C° 0 mm 1 mps 727 mmHg 54%
    18:00 +9°C° 0 mm 2 mps 727 mmHg 58%
    19:00 +7°C° 0 mm 2 mps 727 mmHg 63%
    20:00 +7°C° 0 mm 2 mps 727 mmHg 64%
    21:00 +7°C° 0 mm 2 mps 726 mmHg 65%
    22:00 +7°C° 0 mm 2 mps 726 mmHg 66%
    23:00 +7°C° 0 mm 2 mps 726 mmHg 65%

    27 September, Thursday

    Time Temperature Precipitation Wind Pressure Humidity
    00:00 +7°C° 0 mm 2 mps 726 mmHg 64%
    01:00 +7°C° 0 mm 2 mps 726 mmHg 63%
    02:00 +7°C° 0 mm 2 mps 725 mmHg 61%
    03:00 +8°C° 0 mm 2 mps 725 mmHg 59%
    04:00 +8°C° 0 mm 2 mps 725 mmHg 57%
    05:00 +8°C° 0 mm 2 mps 725 mmHg 56%
    06:00 +8°C° 0 mm 2 mps 725 mmHg 56%
    07:00 +9°C° 0 mm 2 mps 725 mmHg 56%
    08:00 +12°C° 0 mm 2 mps 725 mmHg 49%
    09:00 +14°C° 0 mm 2 mps 725 mmHg 43%
    10:00 +17°C° 0 mm 2 mps 725 mmHg 37%
    11:00 +18°C° 0 mm 3 mps 725 mmHg 36%
    12:00 +18°C° 0 mm 3 mps 724 mmHg 35%
    13:00 +19°C° 0 mm 3 mps 724 mmHg 34%
    14:00 +19°C° 0 mm 2 mps 724 mmHg 39%
    15:00 +18°C° 0 mm 2 mps 723 mmHg 44%
    16:00 +18°C° 0 mm 2 mps 723 mmHg 49%
    17:00 +16°C° 0 mm 2 mps 723 mmHg 54%
    18:00 +13°C° 0 mm 1 mps 723 mmHg 58%
    19:00 +11°C° 0 mm 1 mps 723 mmHg 63%
    20:00 +11°C° 0 mm 1 mps 723 mmHg 63%
    21:00 +11°C° 0 mm 1 mps 723 mmHg 64%
    22:00 +10°C° 0 mm 1 mps 722 mmHg 65%
    23:00 +10°C° 0 mm 1 mps 722 mmHg 65%

    28 September, Friday

    Time Temperature Precipitation Wind Pressure Humidity
    00:00 +10°C° 0 mm 1 mps 722 mmHg 66%
    01:00 +10°C° 0 mm 1 mps 722 mmHg 66%
    02:00 +10°C° 0 mm 1 mps 721 mmHg 67%
    03:00 +9°C° 0 mm 1 mps 721 mmHg 68%
    04:00 +9°C° 0 mm 1 mps 721 mmHg 69%
    05:00 +10°C° 0 mm 1 mps 721 mmHg 68%
    06:00 +10°C° 0 mm 2 mps 721 mmHg 67%
    07:00 +10°C° 0 mm 2 mps 720 mmHg 65%
    08:00 +14°C° 0 mm 2 mps 720 mmHg 59%
    09:00 +16°C° 0 mm 2 mps 721 mmHg 52%
    10:00 +18°C° 0 mm 2 mps 721 mmHg 45%
    11:00 +19°C° 0 mm 2 mps 720 mmHg 42%
    12:00 +20°C° 0 mm 2 mps 720 mmHg 40%
    13:00 +21°C° 0 mm 2 mps 719 mmHg 37%
    14:00 +21°C° 0 mm 2 mps 719 mmHg 42%
    15:00 +20°C° 0 mm 2 mps 718 mmHg 46%
    16:00 +20°C° 0 mm 1 mps 718 mmHg 50%
    17:00 +18°C° 0 mm 1 mps 717 mmHg 56%
    18:00 +14°C° 0 mm 1 mps 717 mmHg 61%
    19:00 +12°C° 0 mm 2 mps 717 mmHg 67%
    20:00 +12°C° 0 mm 2 mps 717 mmHg 68%
    21:00 +10°C° 0 mm 2 mps 717 mmHg 70%
    22:00 +10°C° 0 mm 2 mps 716 mmHg 72%
    23:00 +9°C° 0 mm 2 mps 716 mmHg 72%
    Show more